Madison, SD

4:07 PM CST on November 21, 2019 (GMT -0600)
Madison Municipal

Weather History for KMDS - October, 2019

Change the Weather History Date:

Tuesday, October 15, 2019

  Actual Average Record
Temperature  
Mean Temperature 38 °F -  
Max Temperature 41 °F 58 °F 66 °F (2010)
Min Temperature 35 °F 34 °F 23 °F (2018)
Degree Days  
Heating Degree Days 27    
Moisture  
Dew Point 38 °F    
Average Humidity 97    
Maximum Humidity 100    
Minimum Humidity 87    
Precipitation  
Precipitation 0.00 in - - ()
Sea Level Pressure  
Sea Level Pressure 30.00 in    
Wind  
Wind Speed 14 mph ()    
Max Wind Speed 29 mph    
Max Gust Speed 36 mph    
Visibility 10.0 miles    
Events Rain    
Averages and records for this station are not official NWS values.
T = Trace of Precipitation, MM = Missing Value Source: Averaged Metar Reports

Daily Weather History Graph

Daily Weather History Graph

Search for Another Location

Airport or City:

Astronomy

Oct. 15, 2019 Rise Set
Actual Time 7:42 AM CDT 6:44 PM CDT
Civil Twilight 7:13 AM CDT 7:13 PM CDT
Nautical Twilight 6:40 AM CDT 7:47 PM CDT
Astronomical Twilight 6:06 AM CDT 8:20 PM CDT
Moon 8:02 PM CDT (10/15) 9:16 AM CDT (10/15)
Length of Visible Light 12h 00m
Length of Day
11h 02m
Full, 97% of the Moon is Illuminated
Oct 15
Full
Oct 21
Last Quarter
Oct 27
New
Nov 4
First Quarter
Nov 12
Full

Hourly Weather History & Observations

Time (CDT) Temp. Windchill Dew Point Humidity Pressure Visibility Wind Dir Wind Speed Gust Speed Precip Events Conditions
12:00 AM 37.4 °F 31.4 °F 37.4 °F 100% 29.76 in 10.0 mi North 8.1 mph - N/A   Clear
12:15 AM 37.4 °F 30.8 °F 37.4 °F 100% 29.76 in 10.0 mi NNE 9.2 mph - N/A   Clear
12:35 AM 37.4 °F 30.3 °F 37.4 °F 100% 29.75 in 10.0 mi NNE 10.4 mph - N/A   Clear
12:40 AM 37.4 °F 30.3 °F 37.4 °F 100% 29.74 in 10.0 mi NNE 10.4 mph - N/A   Clear
12:55 AM 37.4 °F 31.4 °F 37.4 °F 100% 29.74 in 10.0 mi NNE 8.1 mph - N/A   Clear
1:00 AM 35.6 °F 28.6 °F 35.6 °F 100% 29.76 in 10.0 mi NNW 9.2 mph - N/A   Clear
1:15 AM 35.6 °F 29.9 °F 35.6 °F 100% 29.76 in 10.0 mi NNW 6.9 mph - N/A   Clear
1:35 AM 35.6 °F 27.1 °F 35.6 °F 100% 29.80 in 10.0 mi NW 12.7 mph - N/A   Clear
1:55 AM 37.4 °F 28.9 °F 37.4 °F 100% 29.79 in 10.0 mi NNW 13.8 mph - N/A   Clear
2:00 AM 37.4 °F 29.3 °F 37.4 °F 100% 29.79 in 10.0 mi NNW 12.7 mph - N/A   Clear
2:15 AM 37.4 °F 30.3 °F 37.4 °F 100% 29.80 in 10.0 mi NNW 10.4 mph - N/A   Clear
2:20 AM 37.4 °F 30.3 °F 37.4 °F 100% 29.80 in 10.0 mi NNW 10.4 mph - N/A   Clear
2:40 AM 37.4 °F 30.8 °F 37.4 °F 100% 29.82 in 10.0 mi NW 9.2 mph - N/A   Clear
2:55 AM 37.4 °F 31.4 °F 37.4 °F 100% 29.81 in 10.0 mi NNW 8.1 mph - N/A   Clear
3:20 AM 37.4 °F 29.8 °F 37.4 °F 100% 29.84 in 10.0 mi NW 11.5 mph - N/A   Clear
3:35 AM 37.4 °F 28.9 °F 37.4 °F 100% 29.86 in 10.0 mi WNW 13.8 mph - N/A   Clear
3:40 AM 37.4 °F 29.3 °F 37.4 °F 100% 29.86 in 10.0 mi NW 12.7 mph - N/A   Clear
4:15 AM 37.4 °F 29.3 °F 37.4 °F 100% 29.86 in 10.0 mi WNW 12.7 mph - N/A   Partly Cloudy
4:20 AM 37.4 °F 30.3 °F 37.4 °F 100% 29.86 in 10.0 mi WNW 10.4 mph - N/A   Partly Cloudy
4:35 AM 35.6 °F 27.5 °F 35.6 °F 100% 29.87 in 10.0 mi WNW 11.5 mph - N/A   Mostly Cloudy
4:55 AM 35.6 °F 27.5 °F 35.6 °F 100% 29.88 in 10.0 mi WNW 11.5 mph - N/A   Scattered Clouds
5:00 AM 35.6 °F 27.1 °F 35.6 °F 100% 29.88 in 10.0 mi NW 12.7 mph - N/A   Partly Cloudy
5:15 AM 37.4 °F 29.3 °F 37.4 °F 100% 29.88 in 10.0 mi WNW 12.7 mph - N/A   Clear
5:20 AM 37.4 °F 28.9 °F 37.4 °F 100% 29.89 in 10.0 mi WNW 13.8 mph - N/A   Clear
5:35 AM 37.4 °F 28.2 °F 37.4 °F 100% 29.90 in 10.0 mi WNW 16.1 mph 21.9 mph N/A   Clear
5:40 AM 37.4 °F 28.5 °F 37.4 °F 100% 29.89 in 10.0 mi WNW 15.0 mph 21.9 mph N/A   Clear
5:55 AM 35.6 °F 25.9 °F 35.6 °F 100% 29.91 in 10.0 mi WNW 16.1 mph - N/A   Clear
6:00 AM 35.6 °F 25.5 °F 35.6 °F 100% 29.91 in 10.0 mi WNW 17.3 mph 23.0 mph N/A   Clear
6:15 AM 37.4 °F - 37.4 °F 100% 29.92 in 10.0 mi North - - N/A   Scattered Clouds
6:20 AM 37.4 °F - 37.4 °F 100% 29.92 in 10.0 mi North - - N/A   Mostly Cloudy
6:35 AM 37.4 °F 27.2 °F 37.4 °F 100% 29.94 in 10.0 mi NW 19.6 mph 27.6 mph N/A   Overcast
6:40 AM 37.4 °F 26.9 °F 37.4 °F 100% 29.94 in 10.0 mi NW 20.7 mph 27.6 mph N/A   Overcast
6:55 AM 37.4 °F 27.8 °F 37.4 °F 100% 29.94 in 10.0 mi NW 17.3 mph 27.6 mph N/A   Overcast
7:15 AM 37.4 °F 26.6 °F 37.4 °F 100% 29.94 in 10.0 mi NW 21.9 mph 28.8 mph N/A   Overcast
7:20 AM 37.4 °F 27.2 °F 37.4 °F 100% 29.94 in 10.0 mi NW 19.6 mph 28.8 mph N/A   Overcast
7:40 AM 37.4 °F 27.8 °F 37.4 °F 100% 29.94 in 10.0 mi NW 17.3 mph 23.0 mph N/A   Mostly Cloudy
7:55 AM 37.4 °F 28.5 °F 37.4 °F 100% 29.95 in 10.0 mi NW 15.0 mph 20.7 mph N/A   Mostly Cloudy
8:15 AM 37.4 °F 28.5 °F 37.4 °F 100% 29.96 in 10.0 mi NW 15.0 mph 21.9 mph N/A   Mostly Cloudy
8:20 AM 37.4 °F 28.9 °F 37.4 °F 100% 29.96 in 10.0 mi NW 13.8 mph - N/A   Overcast
8:35 AM 37.4 °F 27.8 °F 37.4 °F 100% 29.96 in 10.0 mi NW 17.3 mph 24.2 mph N/A   Overcast
8:40 AM 37.4 °F 27.8 °F 37.4 °F 100% 29.96 in 10.0 mi NW 17.3 mph 24.2 mph N/A   Overcast
9:00 AM 37.4 °F 27.2 °F 37.4 °F 100% 29.97 in 10.0 mi NW 19.6 mph 26.5 mph N/A   Mostly Cloudy
9:15 AM 39.2 °F 29.0 °F 39.2 °F 100% 29.97 in 10.0 mi NW 21.9 mph 29.9 mph N/A   Mostly Cloudy
9:35 AM 39.2 °F 28.7 °F 39.2 °F 100% 29.98 in 10.0 mi NW 23.0 mph 27.6 mph N/A   Scattered Clouds
9:40 AM 39.2 °F 29.0 °F 39.2 °F 100% 29.98 in 10.0 mi NW 21.9 mph 28.8 mph N/A   Partly Cloudy
9:55 AM 41.0 °F 30.9 °F 39.2 °F 93% 29.98 in 10.0 mi NW 24.2 mph 35.7 mph N/A   Partly Cloudy
10:05 AM 41.0 °F 31.1 °F 39.2 °F 93% 29.99 in 10.0 mi NW 23.0 mph 34.5 mph N/A   Scattered Clouds
10:15 AM 41.0 °F 30.5 °F 37.4 °F 87% 29.99 in 10.0 mi NW 26.5 mph 34.5 mph N/A   Mostly Cloudy
10:35 AM 41.0 °F 31.6 °F 37.4 °F 87% 30.00 in 10.0 mi NW 20.7 mph 28.8 mph N/A   Overcast
10:40 AM 41.0 °F 32.2 °F 37.4 °F 87% 30.00 in 10.0 mi NW 18.4 mph 29.9 mph N/A   Overcast
10:55 AM 41.0 °F 32.2 °F 37.4 °F 87% 30.00 in 10.0 mi NW 18.4 mph 29.9 mph N/A   Overcast
11:15 AM 41.0 °F 32.5 °F 37.4 °F 87% 30.01 in 10.0 mi NW 17.3 mph 28.8 mph N/A   Overcast
11:35 AM 41.0 °F 31.9 °F 37.4 °F 87% 30.01 in 10.0 mi NW 19.6 mph 29.9 mph N/A   Overcast
11:40 AM 41.0 °F 31.6 °F 39.2 °F 93% 30.01 in 10.0 mi NW 20.7 mph 29.9 mph N/A   Overcast
11:55 AM 41.0 °F 31.6 °F 37.4 °F 87% 30.01 in 10.0 mi NW 20.7 mph 28.8 mph N/A   Overcast
12:15 PM 41.0 °F 31.6 °F 37.4 °F 87% 30.02 in 10.0 mi NW 20.7 mph 31.1 mph N/A   Overcast
12:35 PM 41.0 °F 31.6 °F 37.4 °F 87% 30.02 in 10.0 mi NW 20.7 mph 31.1 mph N/A   Overcast
12:40 PM 41.0 °F 31.1 °F 39.2 °F 93% 30.01 in 10.0 mi NW 23.0 mph 29.9 mph N/A   Overcast
12:55 PM 41.0 °F 31.6 °F 37.4 °F 87% 30.02 in 10.0 mi NW 20.7 mph 29.9 mph N/A   Overcast
1:15 PM 39.2 °F 28.7 °F 39.2 °F 100% 30.02 in 10.0 mi NW 23.0 mph 31.1 mph N/A Rain Light Rain
1:35 PM 39.2 °F 28.7 °F 39.2 °F 100% 30.02 in 10.0 mi NW 23.0 mph 28.8 mph N/A   Overcast
1:40 PM 39.2 °F 29.3 °F 39.2 °F 100% 30.02 in 10.0 mi NW 20.7 mph 28.8 mph N/A   Overcast
1:55 PM 41.0 °F 31.1 °F 37.4 °F 87% 30.02 in 10.0 mi NW 23.0 mph 32.2 mph N/A   Overcast
2:00 PM 41.0 °F 30.7 °F 37.4 °F 87% 30.02 in 10.0 mi NW 25.3 mph 32.2 mph N/A   Overcast
2:15 PM 41.0 °F 31.9 °F 37.4 °F 87% 30.02 in 10.0 mi NW 19.6 mph 35.7 mph N/A   Overcast
2:20 PM 41.0 °F 31.6 °F 37.4 °F 87% 30.02 in 10.0 mi NW 20.7 mph 35.7 mph N/A   Overcast
2:35 PM 41.0 °F 30.9 °F 37.4 °F 87% 30.02 in 10.0 mi NW 24.2 mph 31.1 mph N/A   Overcast
2:55 PM 41.0 °F 31.4 °F 37.4 °F 87% 30.02 in 10.0 mi NW 21.9 mph 31.1 mph N/A   Overcast
3:15 PM 41.0 °F 30.0 °F 37.4 °F 87% 30.03 in 10.0 mi NW 28.8 mph 34.5 mph N/A   Overcast
3:20 PM 41.0 °F 30.2 °F 37.4 °F 87% 30.04 in 10.0 mi NW 27.6 mph 34.5 mph N/A   Overcast
3:35 PM 39.2 °F 27.8 °F 37.4 °F 93% 30.04 in 10.0 mi NW 27.6 mph 32.2 mph N/A   Overcast
3:40 PM 39.2 °F 29.3 °F 37.4 °F 93% 30.04 in 10.0 mi NW 20.7 mph 32.2 mph N/A   Overcast
3:55 PM 39.2 °F 29.0 °F 39.2 °F 100% 30.05 in 10.0 mi NW 21.9 mph 31.1 mph N/A   Overcast
4:15 PM 39.2 °F 29.3 °F 39.2 °F 100% 30.06 in 10.0 mi NNW 20.7 mph 27.6 mph N/A   Overcast
4:20 PM 39.2 °F 30.8 °F 39.2 °F 100% 30.06 in 10.0 mi NNW 15.0 mph 27.6 mph N/A   Overcast
4:35 PM 39.2 °F 30.2 °F 39.2 °F 100% 30.06 in 10.0 mi NNW 17.3 mph 24.2 mph N/A   Overcast
4:55 PM 39.2 °F 29.3 °F 39.2 °F 100% 30.08 in 10.0 mi NW 20.7 mph 26.5 mph N/A   Overcast
5:00 PM 39.2 °F 29.6 °F 39.2 °F 100% 30.08 in 10.0 mi NNW 19.6 mph 27.6 mph N/A   Overcast
5:15 PM 39.2 °F 29.8 °F 39.2 °F 100% 30.09 in 10.0 mi NNW 18.4 mph 26.5 mph N/A   Overcast
5:20 PM 37.4 °F 27.2 °F 37.4 °F 100% 30.09 in 10.0 mi NNW 19.6 mph 26.5 mph N/A   Overcast
5:35 PM 37.4 °F 27.5 °F 37.4 °F 100% 30.10 in 10.0 mi NNW 18.4 mph - N/A   Overcast
5:55 PM 39.2 °F 30.2 °F 39.2 °F 100% 30.10 in 10.0 mi North 17.3 mph 26.5 mph N/A   Overcast
6:15 PM 39.2 °F 31.2 °F 39.2 °F 100% 30.11 in 10.0 mi North 13.8 mph 21.9 mph N/A   Overcast
6:20 PM 39.2 °F 29.8 °F 39.2 °F 100% 30.12 in 10.0 mi North 18.4 mph 24.2 mph N/A   Overcast
6:35 PM 39.2 °F 29.8 °F 39.2 °F 100% 30.12 in 10.0 mi NNW 18.4 mph 25.3 mph N/A   Overcast
6:40 PM 37.4 °F 28.5 °F 37.4 °F 100% 30.12 in 10.0 mi NNW 15.0 mph 24.2 mph N/A   Overcast
6:55 PM 37.4 °F 29.3 °F 37.4 °F 100% 30.12 in 10.0 mi NNW 12.7 mph - N/A   Overcast
7:15 PM 37.4 °F 28.5 °F 37.4 °F 100% 30.13 in 10.0 mi NNW 15.0 mph 21.9 mph N/A   Overcast
7:20 PM 39.2 °F 31.2 °F 39.2 °F 100% 30.13 in 10.0 mi NNW 13.8 mph 20.7 mph N/A   Overcast
7:35 PM 39.2 °F 30.8 °F 39.2 °F 100% 30.13 in 10.0 mi NNW 15.0 mph - N/A   Overcast
7:55 PM 39.2 °F 31.2 °F 39.2 °F 100% 30.14 in 10.0 mi NNW 13.8 mph 21.9 mph N/A   Overcast
8:15 PM 39.2 °F 30.5 °F 39.2 °F 100% 30.15 in 10.0 mi NNW 16.1 mph 21.9 mph N/A   Overcast
8:20 PM 39.2 °F 30.5 °F 39.2 °F 100% 30.16 in 10.0 mi NNW 16.1 mph 21.9 mph N/A   Overcast
8:35 PM 39.2 °F 30.5 °F 39.2 °F 100% 30.16 in 10.0 mi NNW 16.1 mph 23.0 mph N/A   Overcast
8:55 PM 39.2 °F 30.8 °F 39.2 °F 100% 30.16 in 10.0 mi NNW 15.0 mph - N/A   Overcast
9:15 PM 39.2 °F 30.5 °F 39.2 °F 100% 30.17 in 10.0 mi NNW 16.1 mph 24.2 mph N/A   Overcast
9:20 PM 39.2 °F 30.5 °F 39.2 °F 100% 30.17 in 10.0 mi NNW 16.1 mph 24.2 mph N/A   Overcast
9:35 PM 39.2 °F 30.8 °F 39.2 °F 100% 30.17 in 10.0 mi NNW 15.0 mph 21.9 mph N/A   Overcast
9:55 PM 39.2 °F 31.6 °F 39.2 °F 100% 30.18 in 10.0 mi NNW 12.7 mph - N/A   Overcast
10:00 PM 39.2 °F 31.2 °F 39.2 °F 100% 30.18 in 10.0 mi NNW 13.8 mph - N/A   Overcast
10:15 PM 37.4 °F 28.5 °F 37.4 °F 100% 30.18 in 10.0 mi NW 15.0 mph - N/A   Overcast
10:20 PM 37.4 °F 28.5 °F 37.4 °F 100% 30.19 in 10.0 mi NNW 15.0 mph - N/A   Overcast
10:35 PM 37.4 °F 29.3 °F 37.4 °F 100% 30.19 in 10.0 mi NNW 12.7 mph 19.6 mph N/A   Overcast
10:40 PM 37.4 °F 28.5 °F 37.4 °F 100% 30.19 in 10.0 mi NNW 15.0 mph - N/A   Overcast
10:55 PM 37.4 °F 28.5 °F 37.4 °F 100% 30.19 in 10.0 mi NNW 15.0 mph - N/A   Overcast
11:00 PM 37.4 °F 28.9 °F 37.4 °F 100% 30.19 in 10.0 mi NNW 13.8 mph - N/A   Overcast
11:15 PM 37.4 °F 28.2 °F 37.4 °F 100% 30.19 in 10.0 mi NW 16.1 mph 23.0 mph N/A   Overcast
11:20 PM 37.4 °F 27.8 °F 37.4 °F 100% 30.19 in 10.0 mi NNW 17.3 mph 23.0 mph N/A   Overcast
11:35 PM 37.4 °F 27.5 °F 37.4 °F 100% 30.19 in 10.0 mi NNW 18.4 mph 21.9 mph N/A   Overcast
11:55 PM 37.4 °F 29.3 °F 37.4 °F 100% 30.19 in 10.0 mi North 12.7 mph - N/A   Overcast